| time (UTC) | temp C | wind direction | speed KPH | gust KPH | rain 1hr cm | rain 24hr cm | rain mn cm | humidity % | barometer mb |
| 20260502130727 | 0 | 325 | 1.6 | 3.2 | 0.00 | 0.00 | 0.00 | 90 | 1021.8 |
| 20260502130227 | 0 | 51 | 1.6 | 3.2 | 0.00 | 0.00 | 0.00 | 90 | 1021.8 |
| 20260502123724 | -1 | 238 | 0.0 | 1.6 | 0.00 | 0.00 | 0.00 | 89 | 1021.7 |
| 20260502123226 | -1 | 238 | 0.0 | 1.6 | 0.00 | 0.00 | 0.00 | 89 | 1021.6 |
| 20260502122724 | -1 | 265 | 0.0 | 1.6 | 0.00 | 0.00 | 0.00 | 89 | 1021.5 |
| 20260502122219 | -1 | 51 | 0.0 | 1.6 | 0.00 | 0.00 | 0.00 | 89 | 1021.7 |
| 20260502121720 | -1 | 9 | 0.0 | 1.6 | 0.00 | 0.00 | 0.00 | 89 | 1021.6 |
| 20260502121219 | -1 | 153 | 0.0 | 1.6 | 0.00 | 0.00 | 0.00 | 89 | 1021.6 |
| 20260502120718 | -1 | 126 | 1.6 | 1.6 | 0.00 | 0.00 | 0.00 | 89 | 1021.6 |
| 20260502120218 | -1 | 51 | 0.0 | 1.6 | 0.00 | 0.00 | 0.00 | 89 | 1021.6 |
| 20260502115717 | -1 | 265 | 0.0 | 1.6 | 0.00 | 0.00 | 0.00 | 89 | 1021.5 |
| 20260502115217 | -1 | 111 | 0.0 | 1.6 | 0.00 | 0.00 | 0.00 | 89 | 1021.5 |
| 20260502114717 | -1 | 205 | 0.0 | 3.2 | 0.00 | 0.00 | 0.00 | 88 | 1021.5 |
| 20260502114216 | -1 | 215 | 1.6 | 3.2 | 0.00 | 0.00 | 0.00 | 88 | 1021.5 |
| 20260502113716 | -1 | 137 | 0.0 | 1.6 | 0.00 | 0.00 | 0.00 | 88 | 1021.4 |
| 20260502113216 | -1 | 9 | 0.0 | 1.6 | 0.00 | 0.00 | 0.00 | 88 | 1021.4 |
| 20260502112715 | -1 | 325 | 0.0 | 1.6 | 0.00 | 0.00 | 0.00 | 88 | 1021.5 |
| 20260502111215 | -1 | 34 | 0.0 | 1.6 | 0.00 | 0.00 | 0.00 | 88 | 1021.4 |
| 20260502110214 | -1 | 51 | 0.0 | 1.6 | 0.00 | 0.00 | 0.00 | 88 | 1021.4 |
| 20260502105714 | -1 | 137 | 0.0 | 1.6 | 0.00 | 0.00 | 0.00 | 88 | 1021.4 |
| 20260502104709 | -1 | 221 | 0.0 | 1.6 | 0.00 | 0.00 | 0.00 | 88 | 1021.4 |
| 20260502104207 | -1 | 51 | 1.6 | 1.6 | 0.00 | 0.00 | 0.00 | 87 | 1021.4 |
| 20260502103703 | -1 | 9 | 1.6 | 1.6 | 0.00 | 0.00 | 0.00 | 87 | 1021.4 |
| 20260502103204 | -1 | 51 | 0.0 | 1.6 | 0.00 | 0.00 | 0.00 | 87 | 1021.4 |
| 20260502102203 | -1 | 26 | 0.0 | 1.6 | 0.00 | 0.00 | 0.00 | 87 | 1021.3 |
| 20260502101703 | -1 | 9 | 0.0 | 1.6 | 0.00 | 0.00 | 0.00 | 87 | 1021.3 |
| 20260502100702 | -1 | 325 | 0.0 | 1.6 | 0.00 | 0.00 | 0.00 | 87 | 1021.3 |
| 20260502100202 | -1 | 26 | 0.0 | 1.6 | 0.00 | 0.00 | 0.00 | 87 | 1021.2 |
| 20260502091150 | 0 | 93 | 0.0 | 1.6 | 0.00 | 0.00 | 0.00 | 86 | 1021.2 |
| 20260502090643 | 0 | 93 | 0.0 | 1.6 | 0.00 | 0.00 | 0.00 | 86 | 1021.0 |
| 20260502090143 | 0 | 34 | 0.0 | 1.6 | 0.00 | 0.00 | 0.00 | 86 | 1021.0 |
| 20260502071059 | 0 | 309 | 0.0 | 1.6 | 0.00 | 0.00 | 0.00 | 82 | 1021.2 |
| 20260502070559 | 0 | 51 | 0.0 | 1.6 | 0.00 | 0.00 | 0.00 | 82 | 1021.1 |
| 20260502070059 | 0 | 325 | 0.0 | 1.6 | 0.00 | 0.00 | 0.00 | 82 | 1021.1 |
| 20260502065057 | 1 | 9 | 0.0 | 1.6 | 0.00 | 0.00 | 0.00 | 82 | 1021.0 |
| 20260502063557 | 1 | 265 | 0.0 | 1.6 | 0.00 | 0.00 | 0.00 | 81 | 1021.1 |
| 20260502063057 | 1 | 126 | 1.6 | 1.6 | 0.00 | 0.00 | 0.00 | 81 | 1021.1 |
| 20260502062556 | 1 | 137 | 1.6 | 1.6 | 0.00 | 0.00 | 0.00 | 80 | 1021.1 |
| 20260502062056 | 1 | 51 | 0.0 | 1.6 | 0.00 | 0.00 | 0.00 | 80 | 1021.0 |
| 20260502061556 | 1 | 93 | 0.0 | 1.6 | 0.00 | 0.00 | 0.00 | 79 | 1021.0 |
| 20260502060555 | 1 | 137 | 0.0 | 3.2 | 0.00 | 0.00 | 0.00 | 79 | 1020.9 |
| 20260502060055 | 1 | 51 | 0.0 | 3.2 | 0.00 | 0.00 | 0.00 | 79 | 1020.9 |
| 20260502054556 | 2 | 309 | 0.0 | 1.6 | 0.00 | 0.00 | 0.00 | 78 | 1020.8 |
| 20260502054054 | 2 | 137 | 0.0 | 1.6 | 0.00 | 0.00 | 0.00 | 78 | 1020.8 |
| 20260502053555 | 2 | 162 | 0.0 | 1.6 | 0.00 | 0.00 | 0.00 | 78 | 1020.7 |
| 20260502053049 | 2 | 137 | 0.0 | 1.6 | 0.00 | 0.00 | 0.00 | 77 | 1020.7 |
| 20260502052544 | 2 | 309 | 0.0 | 1.6 | 0.00 | 0.00 | 0.00 | 77 | 1020.8 |
| 20260502052043 | 2 | 51 | 1.6 | 1.6 | 0.00 | 0.00 | 0.00 | 76 | 1020.8 |
| 20260502051544 | 2 | 162 | 0.0 | 1.6 | 0.00 | 0.00 | 0.00 | 76 | 1020.7 |
| 20260502050543 | 2 | 137 | 0.0 | 1.6 | 0.00 | 0.00 | 0.00 | 75 | 1020.6 |
| 20260502050043 | 2 | 137 | 0.0 | 1.6 | 0.00 | 0.00 | 0.00 | 75 | 1020.6 |
| 20260502045042 | 3 | 9 | 0.0 | 1.6 | 0.00 | 0.00 | 0.00 | 74 | 1020.5 |
| 20260502044541 | 3 | 137 | 0.0 | 1.6 | 0.00 | 0.00 | 0.00 | 73 | 1020.6 |
| 20260502043536 | 3 | 153 | 0.0 | 1.6 | 0.00 | 0.00 | 0.00 | 71 | 1020.5 |
| 20260502043036 | 3 | 153 | 0.0 | 1.6 | 0.00 | 0.00 | 0.00 | 70 | 1020.4 |
| 20260502042536 | 3 | 162 | 1.6 | 1.6 | 0.00 | 0.00 | 0.00 | 70 | 1020.3 |
| 20260502041536 | 3 | 162 | 0.0 | 1.6 | 0.00 | 0.00 | 0.00 | 68 | 1020.4 |
| 20260502041035 | 4 | 137 | 0.0 | 1.6 | 0.00 | 0.00 | 0.00 | 67 | 1020.4 |
| 20260502040030 | 4 | 93 | 0.0 | 1.6 | 0.00 | 0.00 | 0.00 | 67 | 1020.4 |
| 20260502035519 | 5 | 137 | 1.6 | 1.6 | 0.00 | 0.00 | 0.00 | 66 | 1020.4 |
| 20260502035019 | 5 | 265 | 0.0 | 3.2 | 0.00 | 0.00 | 0.00 | 66 | 1020.3 |
| 20260502034513 | 5 | 265 | 0.0 | 3.2 | 0.00 | 0.00 | 0.00 | 65 | 1020.4 |
| 20260502034014 | 5 | 287 | 0.0 | 3.2 | 0.00 | 0.00 | 0.00 | 64 | 1020.3 |
| 20260502033513 | 5 | 291 | 0.0 | 1.6 | 0.00 | 0.00 | 0.00 | 63 | 1020.3 |
| 20260502033013 | 6 | 325 | 0.0 | 3.2 | 0.00 | 0.00 | 0.00 | 63 | 1020.4 |
| 20260502032513 | 6 | 309 | 1.6 | 3.2 | 0.00 | 0.00 | 0.00 | 62 | 1020.3 |
| 20260502032012 | 6 | 51 | 0.0 | 3.2 | 0.00 | 0.00 | 0.00 | 60 | 1020.3 |
| 20260502031512 | 7 | 291 | 0.0 | 1.6 | 0.00 | 0.00 | 0.00 | 57 | 1020.2 |
| 20260502031001 | 7 | 205 | 0.0 | 1.6 | 0.00 | 0.00 | 0.00 | 52 | 1020.2 |
| 20260502030501 | 7 | 212 | 1.6 | 1.6 | 0.00 | 0.00 | 0.00 | 50 | 1020.2 |
| 20260502030002 | 8 | 238 | 0.0 | 1.6 | 0.00 | 0.00 | 0.00 | 48 | 1020.1 |
| 20260502025501 | 8 | 51 | 0.0 | 3.2 | 0.00 | 0.00 | 0.00 | 47 | 1020.1 |
| 20260502025001 | 8 | 119 | 1.6 | 3.2 | 0.00 | 0.00 | 0.00 | 46 | 1020.0 |
| 20260502024451 | 8 | 342 | 1.6 | 3.2 | 0.00 | 0.00 | 0.00 | 44 | 1019.9 |
| 20260502022949 | 8 | 338 | 1.6 | 3.2 | 0.00 | 0.00 | 0.00 | 44 | 1019.8 |
| 20260502022450 | 8 | 19 | 1.6 | 4.8 | 0.00 | 0.00 | 0.00 | 44 | 1019.7 |
| 20260502021949 | 8 | 44 | 3.2 | 4.8 | 0.00 | 0.00 | 0.00 | 44 | 1019.7 |
| 20260502021449 | 9 | 334 | 1.6 | 4.8 | 0.00 | 0.00 | 0.00 | 44 | 1019.6 |
| 20260502020950 | 9 | 9 | 1.6 | 4.8 | 0.00 | 0.00 | 0.00 | 44 | 1019.6 |
| 20260502020448 | 9 | 30 | 3.2 | 4.8 | 0.00 | 0.00 | 0.00 | 43 | 1019.6 |
| 20260502014447 | 10 | 325 | 3.2 | 6.4 | 0.00 | 0.00 | 0.00 | 42 | 1019.3 |
| 20260502013947 | 10 | 26 | 3.2 | 6.4 | 0.00 | 0.00 | 0.00 | 42 | 1019.2 |
| 20260502012946 | 10 | 330 | 3.2 | 11.3 | 0.00 | 0.00 | 0.00 | 42 | 1019.1 |
| 20260502011946 | 10 | 19 | 3.2 | 9.7 | 0.00 | 0.00 | 0.00 | 43 | 1019.0 |
| 20260502011445 | 10 | 43 | 3.2 | 9.7 | 0.00 | 0.00 | 0.00 | 44 | 1018.9 |
| 20260502010445 | 10 | 15 | 4.8 | 16.1 | 0.00 | 0.00 | 0.00 | 43 | 1018.8 |
| 20260502005445 | 11 | 347 | 6.4 | 19.3 | 0.00 | 0.00 | 0.00 | 43 | 1018.8 |
| 20260502004943 | 11 | 347 | 8.0 | 19.3 | 0.00 | 0.00 | 0.00 | 41 | 1018.8 |
| 20260502004443 | 11 | 329 | 8.0 | 17.7 | 0.00 | 0.00 | 0.00 | 41 | 1018.7 |
| 20260502003942 | 11 | 9 | 9.7 | 19.3 | 0.00 | 0.00 | 0.00 | 42 | 1018.6 |
| 20260502003442 | 11 | 24 | 8.0 | 19.3 | 0.00 | 0.00 | 0.00 | 41 | 1018.5 |
| 20260502002942 | 12 | 19 | 6.4 | 19.3 | 0.00 | 0.00 | 0.00 | 40 | 1018.5 |
| 20260502002443 | 12 | 344 | 11.3 | 19.3 | 0.00 | 0.00 | 0.00 | 39 | 1018.5 |
| 20260502001942 | 12 | 309 | 4.8 | 19.3 | 0.00 | 0.00 | 0.00 | 40 | 1018.4 |
| 20260502001442 | 12 | 324 | 8.0 | 22.5 | 0.00 | 0.00 | 0.00 | 38 | 1018.4 |
| 20260502000941 | 12 | 341 | 9.7 | 25.7 | 0.00 | 0.00 | 0.00 | 38 | 1018.3 |
| 20260502000441 | 13 | 310 | 9.7 | 25.7 | 0.00 | 0.00 | 0.00 | 38 | 1018.5 |
| 20260501235942 | 13 | 9 | 14.5 | 25.7 | 0.00 | 0.00 | 0.00 | 37 | 1018.4 |
| 20260501234940 | 13 | 316 | 6.4 | 20.9 | 0.00 | 0.00 | 0.00 | 38 | 1018.5 |
| 20260501233439 | 13 | 305 | 12.9 | 25.7 | 0.00 | 0.00 | 0.00 | 35 | 1018.4 |
| 20260501232440 | 14 | 9 | 8.0 | 27.4 | 0.00 | 0.00 | 0.00 | 37 | 1018.4 |
| 20260501231939 | 14 | 335 | 12.9 | 27.4 | 0.00 | 0.00 | 0.00 | 36 | 1018.4 |
| 20260501231438 | 14 | 15 | 11.3 | 27.4 | 0.00 | 0.00 | 0.00 | 37 | 1018.3 |
| 20260501230937 | 15 | 350 | 9.7 | 25.7 | 0.00 | 0.00 | 0.00 | 37 | 1018.4 |
| 20260501230437 | 15 | 334 | 9.7 | 22.5 | 0.00 | 0.00 | 0.00 | 37 | 1018.3 |
| 20260501225936 | 15 | 344 | 12.9 | 22.5 | 0.00 | 0.00 | 0.00 | 33 | 1018.2 |
| 20260501225436 | 15 | 340 | 6.4 | 24.1 | 0.00 | 0.00 | 0.00 | 38 | 1018.4 |
| 20260501224935 | 15 | 303 | 8.0 | 25.7 | 0.00 | 0.00 | 0.00 | 36 | 1018.3 |
| 20260501222928 | 15 | 324 | 8.0 | 25.7 | 0.00 | 0.00 | 0.00 | 36 | 1018.2 |
| 20260501222429 | 15 | 332 | 14.5 | 25.7 | 0.00 | 0.00 | 0.00 | 36 | 1018.3 |
| 20260501221927 | 15 | 325 | 8.0 | 20.9 | 0.00 | 0.00 | 0.00 | 37 | 1018.1 |
| 20260501221427 | 15 | 348 | 6.4 | 20.9 | 0.00 | 0.00 | 0.00 | 36 | 1018.1 |
| 20260501220927 | 15 | 11 | 9.7 | 20.9 | 0.00 | 0.00 | 0.00 | 36 | 1018.1 |
| 20260501220424 | 15 | 26 | 11.3 | 20.9 | 0.00 | 0.00 | 0.00 | 36 | 1018.2 |
| 20260501215923 | 15 | 336 | 9.7 | 20.9 | 0.00 | 0.00 | 0.00 | 38 | 1018.2 |
| 20260501215422 | 15 | 342 | 9.7 | 22.5 | 0.00 | 0.00 | 0.00 | 34 | 1018.1 |
| 20260501214919 | 15 | 337 | 14.5 | 22.5 | 0.00 | 0.00 | 0.00 | 34 | 1018.1 |
| 20260501214416 | 15 | 38 | 8.0 | 20.9 | 0.00 | 0.00 | 0.00 | 37 | 1018.2 |
| 20260501213916 | 16 | 337 | 11.3 | 25.7 | 0.00 | 0.00 | 0.00 | 37 | 1018.2 |
| 20260501212913 | 16 | 350 | 6.4 | 25.7 | 0.00 | 0.00 | 0.00 | 37 | 1018.2 |
| 20260501212414 | 16 | 16 | 4.8 | 25.7 | 0.00 | 0.00 | 0.00 | 36 | 1018.3 |
| 20260501211912 | 15 | 339 | 9.7 | 25.7 | 0.00 | 0.00 | 0.00 | 37 | 1018.3 |
| 20260501211412 | 15 | 18 | 9.7 | 25.7 | 0.00 | 0.00 | 0.00 | 36 | 1018.3 |
| 20260501210912 | 15 | 298 | 12.9 | 22.5 | 0.00 | 0.00 | 0.00 | 37 | 1018.4 |
| 20260501205910 | 15 | 20 | 14.5 | 27.4 | 0.00 | 0.00 | 0.00 | 38 | 1018.4 |
| 20260501205410 | 15 | 342 | 14.5 | 32.2 | 0.00 | 0.00 | 0.00 | 35 | 1018.4 |
| 20260501204910 | 15 | 342 | 14.5 | 32.2 | 0.00 | 0.00 | 0.00 | 37 | 1018.5 |
| 20260501204411 | 15 | 348 | 9.7 | 29.0 | 0.00 | 0.00 | 0.00 | 39 | 1018.3 |
| 20260501203909 | 15 | 11 | 17.7 | 29.0 | 0.00 | 0.00 | 0.00 | 37 | 1018.4 |
| 20260501203409 | 16 | 10 | 14.5 | 29.0 | 0.00 | 0.00 | 0.00 | 40 | 1018.4 |
| 20260501202908 | 16 | 313 | 12.9 | 25.7 | 0.00 | 0.00 | 0.00 | 38 | 1018.5 |
| 20260501201907 | 16 | 300 | 14.5 | 25.7 | 0.00 | 0.00 | 0.00 | 42 | 1018.6 |
| 20260501200407 | 15 | 331 | 6.4 | 25.7 | 0.00 | 0.00 | 0.00 | 42 | 1018.6 |
| 20260501195906 | 15 | 11 | 12.9 | 25.7 | 0.00 | 0.00 | 0.00 | 43 | 1018.7 |
| 20260501195406 | 15 | 336 | 8.0 | 27.4 | 0.00 | 0.00 | 0.00 | 41 | 1018.7 |
| 20260501194906 | 15 | 334 | 12.9 | 32.2 | 0.00 | 0.00 | 0.00 | 41 | 1018.6 |
| 20260501193905 | 15 | 18 | 8.0 | 24.1 | 0.00 | 0.00 | 0.00 | 42 | 1018.6 |
| 20260501193404 | 15 | 342 | 9.7 | 20.9 | 0.00 | 0.00 | 0.00 | 41 | 1018.6 |
| 20260501192904 | 15 | 342 | 6.4 | 24.1 | 0.00 | 0.00 | 0.00 | 44 | 1018.7 |
| 20260501192406 | 15 | 351 | 11.3 | 24.1 | 0.00 | 0.00 | 0.00 | 43 | 1018.8 |
| 20260501191403 | 15 | 347 | 6.4 | 25.7 | 0.00 | 0.00 | 0.00 | 47 | 1018.7 |
| 20260501190903 | 13 | 323 | 11.3 | 25.7 | 0.00 | 0.00 | 0.00 | 49 | 1018.8 |
| 20260501190403 | 13 | 13 | 14.5 | 24.1 | 0.00 | 0.00 | 0.00 | 44 | 1018.7 |
| 20260501185903 | 15 | 27 | 11.3 | 22.5 | 0.00 | 0.00 | 0.00 | 46 | 1018.7 |
| 20260501185403 | 15 | 309 | 12.9 | 22.5 | 0.00 | 0.00 | 0.00 | 45 | 1018.6 |
| 20260501184403 | 16 | 9 | 14.5 | 24.1 | 0.00 | 0.00 | 0.00 | 47 | 1018.7 |
| 20260501183902 | 16 | 9 | 8.0 | 20.9 | 0.00 | 0.00 | 0.00 | 47 | 1018.7 |
| 20260501183402 | 15 | 298 | 9.7 | 24.1 | 0.00 | 0.00 | 0.00 | 45 | 1018.6 |
| 20260501182900 | 15 | 333 | 14.5 | 24.1 | 0.00 | 0.00 | 0.00 | 44 | 1018.7 |
| 20260501181900 | 15 | 47 | 8.0 | 19.3 | 0.00 | 0.00 | 0.00 | 50 | 1018.7 |
| 20260501181400 | 15 | 347 | 8.0 | 19.3 | 0.00 | 0.00 | 0.00 | 52 | 1018.6 |
| 20260501180901 | 14 | 312 | 6.4 | 24.1 | 0.00 | 0.00 | 0.00 | 52 | 1018.6 |
| 20260501180400 | 14 | 295 | 12.9 | 30.6 | 0.00 | 0.00 | 0.00 | 53 | 1018.8 |
| 20260501175859 | 14 | 346 | 9.7 | 30.6 | 0.00 | 0.00 | 0.00 | 50 | 1018.8 |
| 20260501175359 | 14 | 338 | 11.3 | 22.5 | 0.00 | 0.00 | 0.00 | 53 | 1018.8 |
| 20260501174859 | 13 | 294 | 6.4 | 29.0 | 0.00 | 0.00 | 0.00 | 57 | 1018.8 |
| 20260501174359 | 13 | 335 | 12.9 | 29.0 | 0.00 | 0.00 | 0.00 | 51 | 1018.9 |
| 20260501173859 | 13 | 9 | 9.7 | 19.3 | 0.00 | 0.00 | 0.00 | 51 | 1018.8 |
| 20260501173357 | 13 | 26 | 8.0 | 19.3 | 0.00 | 0.00 | 0.00 | 52 | 1018.9 |
| 20260501171856 | 13 | 346 | 9.7 | 20.9 | 0.00 | 0.00 | 0.00 | 54 | 1018.9 |
| 20260501171357 | 13 | 221 | 9.7 | 27.4 | 0.00 | 0.00 | 0.00 | 53 | 1018.9 |
| 20260501170856 | 13 | 10 | 11.3 | 27.4 | 0.00 | 0.00 | 0.00 | 52 | 1019.1 |
| 20260501170354 | 13 | 342 | 14.5 | 27.4 | 0.00 | 0.00 | 0.00 | 54 | 1018.9 |
| 20260501165854 | 14 | 19 | 11.3 | 20.9 | 0.00 | 0.00 | 0.00 | 53 | 1019.0 |
| 20260501165354 | 13 | 15 | 11.3 | 24.1 | 0.00 | 0.00 | 0.00 | 55 | 1019.0 |
| 20260501164854 | 13 | 323 | 8.0 | 24.1 | 0.00 | 0.00 | 0.00 | 60 | 1019.1 |
| 20260501164352 | 13 | 19 | 11.3 | 30.6 | 0.00 | 0.00 | 0.00 | 59 | 1019.0 |
| 20260501163852 | 13 | 314 | 12.9 | 30.6 | 0.00 | 0.00 | 0.00 | 58 | 1019.1 |
| 20260501163352 | 12 | 342 | 11.3 | 24.1 | 0.00 | 0.00 | 0.00 | 59 | 1019.0 |
| 20260501162851 | 12 | 347 | 14.5 | 37.0 | 0.00 | 0.00 | 0.00 | 58 | 1019.0 |
| 20260501162352 | 12 | 342 | 14.5 | 37.0 | 0.00 | 0.00 | 0.00 | 60 | 1019.0 |
| 20260501161852 | 12 | 11 | 12.9 | 25.7 | 0.00 | 0.00 | 0.00 | 62 | 1019.0 |
| 20260501161350 | 12 | 338 | 14.5 | 29.0 | 0.00 | 0.00 | 0.00 | 60 | 1019.0 |
| 20260501160849 | 12 | 346 | 17.7 | 29.0 | 0.00 | 0.00 | 0.00 | 61 | 1019.0 |
| 20260501160349 | 12 | 344 | 12.9 | 24.1 | 0.00 | 0.00 | 0.00 | 61 | 1018.9 |
| 20260501155849 | 12 | 277 | 8.0 | 25.7 | 0.00 | 0.00 | 0.00 | 62 | 1018.8 |
| 20260501155349 | 12 | 350 | 16.1 | 25.7 | 0.00 | 0.00 | 0.00 | 61 | 1019.0 |
| 20260501153347 | 12 | 221 | 9.7 | 24.1 | 0.00 | 0.00 | 0.00 | 62 | 1018.8 |
| 20260501152846 | 12 | 341 | 8.0 | 20.9 | 0.00 | 0.00 | 0.00 | 62 | 1018.8 |
| 20260501152347 | 12 | 331 | 9.7 | 20.9 | 0.00 | 0.00 | 0.00 | 62 | 1018.8 |
| 20260501151846 | 12 | 348 | 8.0 | 19.3 | 0.00 | 0.00 | 0.00 | 63 | 1018.8 |
| 20260501151345 | 12 | 335 | 8.0 | 19.3 | 0.00 | 0.00 | 0.00 | 64 | 1018.7 |
| 20260501150845 | 12 | 291 | 4.8 | 17.7 | 0.00 | 0.00 | 0.00 | 65 | 1018.7 |
| 20260501150344 | 11 | 342 | 6.4 | 22.5 | 0.00 | 0.00 | 0.00 | 65 | 1018.6 |
| 20260501145845 | 11 | 19 | 9.7 | 22.5 | 0.00 | 0.00 | 0.00 | 64 | 1018.6 |
| 20260501145343 | 11 | 325 | 6.4 | 17.7 | 0.00 | 0.00 | 0.00 | 65 | 1018.7 |
| 20260501144843 | 11 | 305 | 4.8 | 16.1 | 0.00 | 0.00 | 0.00 | 66 | 1018.6 |
| 20260501144343 | 11 | 272 | 8.0 | 16.1 | 0.00 | 0.00 | 0.00 | 65 | 1018.6 |
| 20260501143843 | 11 | 294 | 6.4 | 16.1 | 0.00 | 0.00 | 0.00 | 66 | 1018.7 |
| 20260501143342 | 10 | 344 | 8.0 | 19.3 | 0.00 | 0.00 | 0.00 | 66 | 1018.7 |